Wind_Speed
48 50 52 52 50 49 50 51 49 47 47 49 50 51 51 51 51 51 51 52 52 51 50 49 50 51 51 50 48 47 47 47 46 46 45 45 44 44 45 46 46 46 46 46 46 46 46 45 43 41 40 39 38 38 37 38 39 38 37 37 38 38 38 37 37 37 36 36 36 36 36 37 38 39 42 45 49 52 53 53 52 51 50 50 51
57 56 56 55 54 53 53 53 52 51 49 50 52 53 53 52 51 50 50 50 49 49 48 47 46 46 46 47 48 49 49 49 48 47 46 46 47 47 47 48 48 49 48 48 48 48 47 46 45 43 42 40 39 38 38 38 40 40 39 38 38 38 39 39 40 40 40 39 39 38 38 38 38 39 41 42 45 48 51 53 54 54 53 53 53
59 57 57 59 57 56 56 56 55 54 53 52 53 55 56 55 52 49 47 47 48 48 47 46 44 43 44 45 46 48 50 51 51 51 49 48 48 49 49 50 50 50 50 50 49 48 47 46 45 44 42 41 40 39 38 38 40 42 42 41 40 40 40 40 41 42 43 43 42 42 41 41 40 40 41 42 44 45 48 51 53 55 55 55 54
57 58 61 62 61 59 58 58 57 56 55 53 53 55 58 58 56 53 51 51 51 51 51 51 50 50 51 53 53 54 55 55 55 55 55 53 52 51 50 49 49 48 48 49 48 47 47 46 46 45 43 41 40 40 39 39 40 41 43 44 43 43 43 43 43 44 44 45 45 45 45 44 44 44 43 44 44 45 47 48 50 53 55 56 56
58 60 61 62 62 61 60 60 58 57 56 54 53 55 58 59 58 57 57 56 55 55 55 56 56 57 58 59 60 60 60 60 59 58 57 56 55 54 52 50 48 47 47 46 46 45 46 46 46 45 43 41 40 40 40 40 41 41 42 44 45 45 45 45 45 46 46 47 47 48 48 48 48 47 47 47 47 47 47 48 50 51 53 55 57
58 59 60 61 62 62 61 60 59 57 56 55 53 55 57 59 59 60 60 59 57 56 56 57 58 59 60 61 62 62 63 63 61 60 58 57 56 55 54 51 49 48 46 44 44 44 45 45 44 43 41 41 41 41 41 41 42 43 44 44 45 46 47 47 47 47 48 49 49 50 50 51 51 51 51 51 50 50 50 50 50 51 52 54 56
58 59 60 61 62 62 61 60 59 58 57 56 55 55 57 59 61 61 61 61 61 59 58 60 61 62 62 62 62 63 63 63 62 60 60 59 58 57 55 53 51 47 44 42 42 43 43 43 42 41 41 42 43 43 44 44 44 44 45 45 46 47 48 49 50 50 50 50 51 52 53 53 54 55 55 55 54 53 53 53 53 53 54 54 55
60 60 60 61 62 62 62 62 61 60 59 58 56 56 57 60 62 62 62 62 61 60 60 62 65 66 67 66 65 65 64 63 62 61 60 60 58 57 55 53 51 46 41 39 40 42 42 41 40 39 39 41 43 44 44 44 44 44 44 45 46 46 48 49 51 52 52 52 53 54 55 56 57 57 57 57 57 57 57 56 56 56 56 56 57
62 62 62 62 63 63 63 63 62 62 61 60 58 57 57 60 63 65 64 63 60 59 58 59 61 63 65 66 66 65 64 62 61 60 59 60 59 56 54 51 48 44 40 37 37 38 40 38 37 36 37 38 40 41 41 41 41 42 42 43 43 44 45 46 47 49 51 52 53 55 57 59 60 61 60 60 59 59 60 60 60 60 60 60 60
64 64 64 64 65 65 64 63 63 62 62 61 60 59 58 59 62 65 66 65 64 62 59 56 56 57 59 60 61 62 63 61 60 58 57 58 59 57 55 52 49 45 41 38 37 38 38 38 36 37 38 38 38 38 39 39 40 40 40 40 40 41 43 44 45 46 48 49 51 53 55 57 60 62 63 63 62 62 62 63 63 64 64 64 64
66 66 66 66 66 65 65 64 63 63 63 62 61 60 59 59 61 64 66 65 64 63 60 56 53 53 55 56 56 60 62 60 59 57 55 56 57 57 56 56 55 52 47 44 42 40 40 40 39 39 39 39 39 40 40 41 41 42 41 41 42 42 43 44 45 46 48 49 50 51 53 55 58 61 62 62 63 64 65 65 66 66 67 68 68
68 68 67 67 66 66 65 65 64 63 63 63 62 62 61 60 60 62 65 65 64 63 60 57 54 55 57 57 57 60 61 60 58 57 55 54 54 55 56 57 59 60 57 53 49 45 43 42 42 41 41 41 42 42 42 42 43 43 44 45 45 46 46 46 47 47 48 49 50 52 53 55 57 59 60 60 62 64 65 67 67 68 69 70 71
69 69 68 68 67 67 66 66 65 64 64 64 63 63 62 61 61 61 63 64 64 63 61 59 59 60 61 61 60 61 62 61 59 57 57 56 56 56 57 59 61 63 63 62 59 54 50 46 44 43 43 42 43 44 44 45 46 46 47 48 48 48 48 48 48 49 50 51 51 52 53 55 57 58 59 60 61 63 64 66 68 69 70 71 72
69 69 68 68 68 68 68 67 67 66 65 65 65 64 63 62 61 61 62 63 64 64 64 65 66 66 66 66 65 64 64 64 62 60 59 60 60 60 60 61 62 63 65 66 66 64 60 56 52 49 48 47 46 46 47 47 48 49 49 49 49 49 49 50 51 52 53 54 54 55 56 57 58 58 60 61 62 63 64 66 68 69 71 72 74
69 68 68 68 68 68 68 68 68 68 67 67 66 66 64 63 62 62 63 64 65 66 67 69 70 70 70 70 69 67 65 64 64 62 61 61 62 63 63 63 64 65 66 67 68 68 67 65 61 58 55 53 52 52 52 52 52 52 52 52 52 53 54 55 56 57 58 59 60 60 60 60 60 60 61 61 62 63 65 66 68 70 71 73 74
65 66 67 67 66 66 67 67 68 68 68 68 67 67 65 64 63 63 64 66 67 67 68 69 71 71 72 72 71 69 67 66 65 64 63 63 64 65 65 65 65 66 67 68 69 69 69 69 68 66 63 61 60 59 60 60 60 59 59 59 59 59 60 61 62 64 65 66 66 65 64 63 62 62 63 63 64 65 66 67 69 70 72 74 76
60 61 62 63 63 63 64 65 66 67 67 67 67 67 66 66 66 66 66 67 68 69 70 71 70 70 71 73 72 70 69 68 67 67 67 67 68 69 69 69 68 68 68 69 70 71 72 72 72 71 70 69 68 68 68 68 68 68 67 67 67 67 68 69 70 71 72 72 71 69 68 66 66 66 66 66 67 68 69 70 71 72 73 74 76
56 57 58 59 59 60 62 63 64 65 65 66 66 66 66 67 67 68 67 68 70 72 73 73 71 70 71 74 73 72 72 72 72 72 72 71 71 72 73 73 73 72 72 73 73 74 75 75 75 75 75 75 74 74 73 74 74 75 76 76 76 76 76 77 77 77 77 76 74 73 72 71 71 70 70 71 72 72 73 73 74 75 75 76 77
56 56 57 58 59 60 61 62 63 63 63 63 64 64 64 65 67 68 69 70 73 74 75 75 74 73 73 74 75 75 75 76 76 76 76 75 75 74 75 75 76 76 77 77 78 79 79 80 80 80 80 80 79 79 79 81 82 83 83 83 82 82 82 81 80 79 78 77 75 75 75 75 75 75 75 75 75 75 75 75 75 75 76 77 78
58 58 58 59 60 61 62 63 63 62 61 61 61 62 62 63 65 66 68 69 72 74 75 76 76 76 76 76 76 77 77 78 78 78 77 77 77 77 77 77 78 78 79 79 80 81 82 83 84 85 85 85 85 85 85 86 86 85 85 84 84 84 83 81 80 79 78 78 77 77 78 78 78 78 78 78 77 76 75 75 75 75 76 77 78
62 61 61 62 62 63 64 65 65 64 62 61 61 61 61 63 64 65 66 67 69 71 73 74 75 76 76 76 77 78 79 79 79 79 78 78 78 79 79 79 79 80 80 80 80 79 80 80 81 82 83 84 84 84 83 82 82 82 82 83 83 82 81 80 80 79 79 79 80 81 81 81 81 81 80 79 77 76 75 75 75 74 74 74 75
66 65 65 65 65 66 66 67 67 67 66 64 63 63 63 63 64 65 66 67 67 68 70 71 72 73 74 75 76 77 78 79 79 79 79 79 79 80 80 80 79 79 79 79 78 78 78 78 78 78 78 78 79 79 79 79 80 81 81 81 81 80 80 79 79 80 80 81 82 83 84 84 83 82 80 78 76 75 75 74 73 73 72 71 72
69 69 68 68 68 69 69 70 70 71 71 69 68 67 66 66 66 67 67 68 67 68 68 69 70 71 72 73 74 75 76 76 77 77 77 78 78 78 78 78 77 77 76 76 76 76 77 77 77 76 76 77 77 78 78 79 79 80 80 80 80 80 80 80 80 81 82 83 84 85 85 84 83 80 78 76 75 73 72 71 70 70 69 69 69
71 71 71 71 71 72 72 73 73 74 75 75 74 72 71 70 70 70 71 71 71 71 70 70 71 72 72 72 73 74 74 75 75 76 76 76 76 76 76 75 74 74 74 74 75 76 77 77 77 77 77 78 78 78 78 79 78 79 79 79 80 80 81 81 82 83 84 85 86 86 85 83 80 78 77 75 74 71 69 68 67 67 66 66 66
74 74 74 75 75 75 75 76 76 77 77 79 79 78 77 76 75 74 75 75 74 74 74 74 74 74 74 74 74 74 75 75 76 76 76 76 75 75 74 74 74 74 74 74 75 76 77 77 77 78 78 79 79 79 79 79 79 79 80 80 81 82 83 84 85 86 86 87 86 85 83 81 79 78 76 74 71 69 67 65 65 65 64 63 62
75 75 76 77 78 79 79 79 80 80 81 82 83 82 81 80 80 79 79 79 78 78 78 78 78 77 78 78 78 78 78 78 79 79 78 77 76 75 75 75 75 75 75 75 76 77 78 78 78 79 79 80 80 81 81 81 81 81 81 82 83 84 85 86 86 86 86 86 85 83 81 80 78 76 73 70 68 66 65 64 63 63 62 60 59
75 76 76 77 78 79 80 80 81 83 84 85 85 85 84 83 83 84 84 83 83 83 82 82 81 81 81 81 81 81 81 82 82 82 81 79 78 77 77 77 77 78 78 78 79 79 80 80 80 81 82 82 83 83 83 83 83 83 84 85 85 86 86 86 86 86 85 85 83 82 80 78 75 71 68 66 65 64 63 63 61 60 59 58 57
75 75 77 78 78 79 80 80 81 83 85 85 85 87 87 86 86 87 87 87 87 88 88 86 84 84 84 85 84 84 85 85 86 85 82 80 79 79 79 79 79 80 81 81 81 82 82 82 83 84 84 84 85 85 85 86 86 86 86 86 87 87 87 87 87 86 85 84 82 80 76 73 69 66 64 63 63 63 62 60 58 56 55 55 55
78 77 78 80 80 81 82 82 81 82 84 85 85 86 87 86 87 88 89 89 90 91 91 89 87 86 87 87 87 88 88 89 89 86 83 81 81 81 81 80 81 81 82 83 83 83 83 84 85 85 85 85 86 86 86 86 86 87 87 87 88 88 88 87 86 85 83 81 78 74 70 67 64 62 61 62 63 62 59 56 54 53 53 52 52
79 79 80 81 82 83 83 83 83 83 83 85 86 86 85 84 85 88 89 89 90 91 91 91 89 88 88 89 90 90 90 89 88 86 82 81 82 82 81 81 81 81 83 84 84 85 85 85 86 86 86 87 87 87 87 87 87 87 87 87 87 86 86 85 83 81 78 75 71 67 64 61 59 59 61 61 61 58 56 53 52 51 50 49 48
75 77 78 79 81 82 82 82 82 82 83 84 86 87 86 84 83 86 87 88 90 91 91 91 91 91 90 90 91 91 89 87 86 85 82 81 81 81 79 78 79 80 82 82 83 84 85 85 86 86 86 87 87 87 86 86 86 85 84 84 83 81 80 79 77 75 72 68 64 60 57 56 57 59 60 59 57 54 52 50 49 48 47 46 45
69 71 73 73 74 76 77 77 78 78 79 81 83 85 86 86 84 83 84 86 89 90 89 89 91 92 91 91 91 90 88 86 85 84 82 81 79 78 76 76 78 80 80 80 81 81 82 83 83 84 85 85 85 85 85 84 83 82 80 79 78 77 76 74 71 68 65 61 58 55 53 54 56 57 57 55 52 50 49 48 47 46 44 43 42
64 65 67 67 67 68 69 70 70 70 71 73 76 79 82 84 85 85 84 84 85 86 87 88 88 89 90 92 91 89 87 85 84 83 81 78 75 74 74 76 79 80 80 79 79 79 80 81 81 82 83 83 82 82 81 80 79 78 76 75 74 72 70 68 65 62 58 55 52 51 51 53 55 54 52 49 47 47 47 46 45 44 42 41 40
62 62 63 64 64 64 64 65 65 64 63 65 67 70 73 77 80 82 83 82 82 82 83 85 85 85 86 87 86 85 85 85 84 80 75 71 70 71 74 76 78 79 78 78 78 79 79 80 80 80 80 80 79 78 78 77 75 74 73 71 69 67 64 61 59 56 53 50 48 48 50 52 51 49 47 46 45 45 45 44 43 42 41 40 39
60 60 60 60 61 61 61 62 61 61 60 61 62 64 66 69 72 75 77 78 77 77 78 79 79 78 78 78 81 84 85 82 77 71 65 64 66 70 73 74 74 74 75 76 76 77 77 77 77 77 76 75 74 74 73 71 70 68 67 65 63 61 58 56 53 51 48 46 45 47 48 48 46 45 44 44 43 43 43 42 41 40 40 39 38
57 57 56 56 56 57 58 58 58 58 58 59 60 61 62 64 67 70 72 73 73 73 74 74 72 69 69 73 79 81 77 71 65 61 59 61 65 68 69 69 68 69 70 71 72 72 72 72 72 71 70 69 68 67 65 64 63 62 60 59 57 55 53 51 48 47 45 43 43 45 45 43 42 42 42 42 42 41 40 40 39 38 38 38 37
53 52 52 51 51 52 53 54 55 56 56 57 58 58 59 61 64 67 69 70 70 71 71 70 68 66 67 70 73 72 67 61 56 54 55 59 63 64 64 62 62 63 65 66 65 65 65 65 64 63 62 61 60 59 59 58 57 56 55 54 52 51 49 47 45 44 43 41 42 42 41 39 39 40 40 39 39 39 38 37 36 35 35 35 35
49 49 48 47 46 46 46 47 48 50 52 54 55 57 58 59 61 63 65 66 67 68 68 68 67 66 65 66 67 66 62 56 50 48 52 57 60 60 58 56 57 59 60 60 60 59 59 58 57 56 55 55 55 54 53 53 52 51 50 50 48 47 45 43 42 41 40 40 40 39 37 36 37 38 37 37 37 36 35 34 33 33 32 32 32
46 45 45 44 43 42 42 42 43 44 46 49 51 54 56 58 59 61 62 63 65 65 65 65 65 64 65 65 64 61 56 49 44 46 52 57 58 55 54 54 54 55 55 55 55 55 54 52 51 51 51 51 50 50 49 49 48 47 47 46 45 44 42 40 39 39 39 38 37 36 35 34 35 36 35 34 34 33 32 31 31 30 29 28 28
42 42 41 40 40 39 39 39 39 40 41 43 46 49 53 55 57 58 59 61 62 63 62 62 62 63 63 60 56 54 51 48 46 50 55 56 54 52 52 53 52 51 51 52 51 51 49 48 47 47 48 47 47 46 46 45 45 44 43 43 42 41 39 37 36 37 37 36 35 34 33 33 33 33 32 31 31 30 29 28 27 26 25 25 25
38 38 38 37 37 37 37 36 36 37 38 39 41 44 48 50 52 53 55 57 59 59 59 59 59 61 60 54 49 49 51 51 51 53 54 52 50 50 52 51 49 49 49 49 48 47 46 45 45 45 45 44 44 44 43 43 42 42 41 40 39 38 37 35 35 35 35 34 32 31 31 31 31 30 29 29 28 27 25 24 23 23 23 23 22
34 35 35 34 34 34 34 34 34 34 35 35 37 40 42 45 47 48 50 53 54 55 56 57 57 59 57 50 45 46 50 51 51 50 49 47 48 50 51 50 48 47 47 47 46 45 44 43 44 44 43 42 42 41 41 41 40 40 39 38 37 36 35 33 33 34 34 32 31 30 29 29 28 27 26 26 25 23 22 21 20 20 20 21 21
31 32 31 31 30 31 31 31 32 32 32 33 34 36 38 41 43 44 46 48 49 51 53 54 55 55 51 43 39 42 47 49 47 45 44 45 48 49 49 48 47 46 45 44 43 42 42 42 42 41 41 40 40 39 39 39 38 38 37 37 36 34 33 32 32 33 32 31 29 28 27 26 26 25 24 23 21 20 19 19 19 19 20 20 21
30 30 29 28 27 27 28 28 29 29 30 30 31 33 34 36 39 40 42 43 44 46 49 50 51 49 45 40 39 42 45 46 44 42 43 46 47 48 48 47 45 43 43 42 41 41 41 41 40 39 39 38 38 37 37 37 37 36 36 35 34 33 32 31 31 31 31 29 28 27 25 24 23 22 21 20 19 18 18 18 18 18 19 20 20
28 28 27 26 25 24 25 25 26 27 27 28 29 30 31 33 35 37 38 38 40 42 44 45 44 42 40 39 40 42 43 44 44 44 45 46 46 47 47 45 42 41 40 40 40 41 41 40 39 38 38 37 37 37 36 36 36 35 35 34 33 32 31 30 30 30 29 28 27 25 23 22 21 20 19 18 17 17 18 18 17 18 19 19 19
26 26 26 25 24 23 23 23 23 24 24 25 26 27 29 30 32 33 34 35 36 38 39 40 39 39 39 40 41 42 43 44 45 45 45 45 46 46 44 41 39 39 39 39 40 41 39 38 38 38 37 36 36 36 36 35 35 35 34 34 33 31 30 29 29 29 28 27 25 23 22 20 20 19 18 17 16 17 17 17 16 17 18 18 18
25 24 24 24 23 22 21 21 21 22 22 23 24 25 26 28 29 30 31 33 34 35 36 37 37 38 39 40 40 41 43 43 44 44 44 44 44 43 41 38 37 38 39 40 41 40 38 38 38 37 37 36 36 35 35 35 34 34 34 33 32 31 30 29 28 28 27 26 24 22 21 19 19 18 18 17 16 16 16 16 16 16 17 17 16
23 23 23 22 21 21 20 19 19 20 20 21 22 23 24 25 26 27 29 30 31 32 33 34 35 36 37 38 39 40 41 42 42 42 42 42 41 40 38 37 38 39 40 41 40 39 39 39 38 37 37 36 36 35 35 35 34 34 34 33 32 31 29 28 27 27 26 25 23 21 20 19 18 18 18 17 17 17 17 16 16 16 16 15 15
22 22 21 21 20 20 19 19 19 18 18 19 20 22 23 24 24 25 27 28 29 30 31 31 32 33 34 35 36 38 39 40 41 41 41 40 40 39 38 38 40 41 41 41 40 40 39 39 38 38 37 36 36 35 35 35 35 35 34 33 32 31 29 27 26 26 26 25 23 21 20 19 18 19 19 18 18 18 18 17 17 16 15 15 14
22 21 20 19 19 19 18 18 18 18 17 18 19 20 21 22 23 24 25 26 27 29 29 30 31 32 33 33 35 36 38 39 39 39 40 39 39 39 39 40 41 41 41 41 40 40 40 39 39 38 37 36 36 36 36 36 36 35 34 33 32 30 29 28 27 26 25 24 23 22 20 20 19 20 20 19 19 19 19 18 18 17 16 15 14
22 21 20 18 18 18 18 17 17 17 17 17 18 19 20 21 22 23 24 26 27 28 29 30 31 31 32 33 34 35 37 37 38 39 39 39 40 40 40 41 41 41 41 40 40 40 40 39 39 38 37 37 37 37 36 36 36 35 34 33 32 30 29 28 27 26 25 24 23 22 21 21 21 21 21 20 20 19 19 19 19 18 17 16 15
Wind_Direction
248 257 263 263 267 272 272 272 273 272 269 266 264 266 268 271 274 276 277 278 279 280 280 281 282 283 284 283 282 281 279 278 277 277 276 272 268 266 265 263 262 262 261 260 261 262 265 268 271 273 276 279 281 280 272 264 260 258 256 256 256 255 255 254 253 253 252 251 252 252 253 254 254 253 252 250 249 250 251 251 250 249 247 246 246
250 258 262 262 265 270 269 270 272 271 269 266 264 264 265 266 268 271 274 277 278 280 280 281 281 282 283 284 284 284 283 282 280 278 276 273 270 268 268 267 265 265 265 265 266 267 269 271 273 275 278 280 281 278 271 264 259 256 254 255 256 256 255 255 254 253 253 252 251 251 250 251 252 252 252 251 250 249 250 250 251 251 250 248 246
253 258 262 263 266 267 266 268 270 271 270 268 265 264 263 263 263 264 267 269 271 274 275 275 276 277 279 280 281 283 283 284 284 282 280 278 275 272 271 270 269 268 268 269 270 272 273 275 276 278 280 281 279 276 271 265 260 256 254 254 255 256 256 255 255 254 253 253 252 251 250 249 249 250 250 250 251 250 250 249 250 251 251 250 249
257 259 261 263 264 264 264 266 267 269 269 269 268 266 264 262 262 261 262 264 265 267 268 269 270 271 272 274 276 277 278 280 281 282 282 281 279 277 276 275 274 273 274 275 276 277 278 279 280 280 281 280 276 273 270 266 261 258 255 254 254 255 255 255 255 254 253 253 252 252 252 251 250 249 248 249 249 249 249 249 249 250 251 251 251
257 258 259 261 262 263 265 266 266 267 269 269 268 265 261 260 260 261 262 263 264 265 266 266 268 269 270 272 274 276 277 278 279 280 280 279 278 278 279 278 278 278 279 280 281 282 283 283 282 280 278 276 272 269 267 264 261 258 256 255 255 255 255 256 256 255 254 253 253 252 252 252 252 251 249 249 248 248 248 248 249 249 250 250 250
257 258 260 262 264 265 266 267 268 268 268 268 266 263 259 257 257 259 260 262 263 263 264 265 267 268 270 271 273 274 276 277 278 278 278 278 278 278 279 280 280 280 281 283 284 284 283 280 278 275 273 270 267 264 263 261 259 257 257 257 256 256 256 257 258 257 256 255 254 254 253 253 253 252 252 250 249 248 248 248 248 248 248 249 249
258 260 261 263 265 267 268 268 269 269 268 267 265 263 259 256 255 257 259 261 262 262 263 264 266 267 269 271 272 273 274 275 275 275 276 276 277 278 280 281 282 282 284 285 284 281 278 275 272 269 266 264 263 262 261 260 258 257 257 257 257 258 258 259 259 260 259 258 256 255 254 254 253 253 253 252 251 250 249 248 248 248 248 248 248
260 261 263 264 266 267 269 269 269 269 268 267 265 263 260 257 255 256 258 260 262 263 264 266 268 269 270 270 271 271 272 273 273 274 275 276 277 279 280 281 281 282 283 282 279 278 277 275 272 269 265 261 260 260 260 259 258 257 257 257 257 258 259 260 261 262 262 261 259 257 255 254 254 253 253 254 254 253 252 251 250 249 248 248 248
262 263 264 265 267 267 268 269 269 268 267 266 264 262 260 257 256 256 258 259 261 263 266 268 270 271 272 272 272 272 271 272 273 276 277 278 279 279 278 278 279 279 278 276 274 274 275 274 271 268 265 262 259 258 257 257 257 257 257 257 258 259 260 261 262 263 264 263 262 259 258 257 256 255 254 255 255 256 255 255 253 252 250 249 248
263 264 265 266 266 267 267 267 267 266 265 264 263 261 259 257 256 256 257 259 261 262 265 267 269 271 272 274 274 273 272 274 276 278 279 280 281 281 282 282 281 279 276 274 273 272 271 271 269 266 264 263 261 260 258 257 257 257 257 259 261 262 263 264 265 265 265 265 264 263 261 260 259 258 257 256 256 257 257 257 256 255 254 253 251
265 265 265 265 265 265 265 265 264 264 263 262 261 260 258 256 255 255 256 258 259 261 262 265 267 269 269 270 271 272 274 277 280 280 280 280 282 284 286 287 286 284 281 278 276 273 270 269 269 268 267 265 264 263 262 260 259 259 259 260 262 264 265 267 268 269 268 267 266 266 266 264 263 261 260 259 258 258 258 258 257 257 256 256 255
267 267 266 265 264 263 263 262 262 261 261 260 259 258 257 255 254 254 255 256 258 259 260 260 261 262 264 265 267 270 273 277 278 279 279 278 279 280 282 284 286 288 287 285 282 279 274 270 268 267 267 267 267 267 266 264 263 262 262 263 263 264 266 268 271 272 272 270 268 267 266 266 266 265 264 262 261 260 259 259 258 258 257 257 257
268 267 266 265 264 263 262 260 260 259 258 258 258 257 257 256 254 254 254 255 256 257 257 256 256 257 260 262 264 267 270 273 274 274 274 275 276 276 278 279 282 285 287 288 288 286 283 279 274 270 268 267 267 267 267 266 266 265 265 265 264 265 267 271 275 277 277 275 272 270 268 266 266 266 266 265 264 263 262 261 260 259 258 258 258
268 267 266 265 264 263 261 260 259 258 257 256 256 256 256 256 255 255 255 255 255 255 254 254 255 256 258 260 262 264 266 269 271 271 271 272 274 275 276 277 279 281 283 285 287 288 288 286 284 280 276 274 272 271 270 270 269 269 268 268 268 270 273 277 280 282 282 281 279 276 274 272 269 267 266 265 264 264 264 264 263 262 261 260 259
266 265 264 263 262 262 261 260 259 258 257 256 255 255 255 255 255 255 255 255 254 254 254 255 256 257 258 259 261 262 264 265 267 268 269 270 272 273 274 274 275 276 278 280 282 284 286 287 287 285 283 281 279 279 279 278 278 277 277 277 278 279 280 282 283 284 285 285 283 280 279 277 275 273 271 269 267 266 265 264 264 264 264 263 262
263 262 262 262 262 261 261 260 260 258 257 256 255 254 253 253 253 254 255 255 255 255 255 256 257 258 259 259 260 262 263 263 264 265 266 267 268 270 271 271 271 272 274 275 277 279 282 284 285 286 286 285 284 284 285 285 285 284 284 284 284 284 285 285 286 286 286 286 284 282 281 280 278 277 276 274 273 272 270 268 266 265 264 264 264
260 260 260 260 260 260 259 259 259 258 257 256 255 254 252 251 251 252 253 255 257 256 255 255 255 256 257 259 260 261 262 263 264 263 263 263 264 266 268 269 269 270 270 272 274 276 278 280 282 283 284 285 285 285 285 286 286 287 287 287 287 287 287 287 287 287 287 286 285 283 283 283 282 280 280 279 278 277 276 274 272 269 267 264 263
260 260 259 259 259 258 258 257 257 256 256 256 256 255 253 251 250 250 250 252 254 255 256 256 256 255 255 256 257 258 259 260 261 262 262 262 263 263 264 265 266 267 267 268 270 272 274 275 277 278 280 280 281 281 282 283 284 285 286 286 286 287 287 286 286 286 285 285 284 283 284 284 284 283 283 283 282 281 279 277 275 272 270 268 265
259 259 259 259 259 258 258 257 256 255 254 254 254 254 254 253 252 250 249 249 250 253 254 256 256 255 254 255 256 256 257 257 258 259 261 262 262 262 262 263 263 264 265 266 267 269 270 272 273 274 275 276 277 278 279 280 282 282 283 284 284 284 284 284 284 283 283 282 282 282 283 284 285 285 285 284 283 282 280 278 276 274 272 270 267
260 259 259 259 258 258 258 258 258 257 256 255 255 254 254 253 253 252 250 249 249 251 252 254 254 255 255 255 256 256 256 257 258 259 260 261 261 262 262 263 263 264 265 266 267 268 269 269 270 271 272 273 274 275 277 278 279 280 280 281 282 282 282 282 282 281 282 282 282 283 284 285 286 286 286 285 285 283 282 280 277 275 273 270 268
262 261 260 260 260 260 260 260 260 260 259 258 257 256 255 254 254 253 253 252 251 251 252 253 254 255 255 255 256 257 257 258 258 259 260 261 261 262 263 264 265 266 268 269 269 270 270 271 271 271 272 273 274 275 276 277 278 278 279 279 280 280 280 280 280 281 282 282 283 284 285 286 287 287 287 287 287 286 284 282 279 276 273 271 269
263 262 262 262 261 261 262 262 262 262 261 259 258 257 256 256 256 255 255 254 253 252 253 254 255 256 256 256 257 258 258 259 260 260 261 261 262 263 264 265 266 268 269 270 271 272 272 272 273 273 273 274 274 275 276 277 277 278 278 278 278 279 279 279 280 281 281 282 283 284 285 286 287 288 288 288 288 287 285 283 280 278 275 272 270
264 264 263 263 263 263 263 263 263 264 263 262 260 258 257 257 257 256 256 256 256 255 254 255 255 256 256 257 258 258 259 260 261 261 261 262 262 263 264 265 267 268 269 270 271 272 273 273 273 274 274 275 275 276 277 277 277 277 277 277 278 278 279 280 280 281 282 282 283 285 286 287 288 289 289 290 289 287 285 283 280 278 276 274 272
262 263 263 263 262 263 263 263 263 264 264 264 263 262 260 259 258 257 257 257 257 257 257 256 257 257 257 257 258 258 259 260 261 261 261 261 262 263 264 265 267 267 268 269 270 271 271 272 273 274 274 275 275 275 276 276 276 277 277 278 278 279 280 281 281 282 283 284 285 286 287 288 290 291 292 291 290 287 285 283 280 278 276 274 273
261 261 261 261 260 260 261 261 262 262 263 264 264 264 263 262 261 260 260 259 259 258 258 258 258 258 258 258 259 259 259 260 260 261 261 261 262 263 264 266 267 267 268 268 269 269 270 271 272 273 273 274 274 274 274 275 275 276 277 278 279 280 280 281 282 283 283 285 286 287 288 290 291 292 292 291 289 287 285 282 280 278 277 275 274
261 259 259 258 258 258 258 258 259 260 260 261 262 263 263 264 264 263 262 262 261 260 260 260 259 259 259 259 259 259 259 259 260 260 261 261 263 264 264 265 266 267 267 267 268 268 269 270 271 271 272 272 273 274 274 275 276 276 277 278 279 280 280 281 282 283 284 286 287 289 290 291 292 292 291 290 288 286 283 281 279 278 278 278 278
262 261 260 259 258 257 256 256 256 257 257 258 259 260 261 261 262 262 263 263 262 262 261 260 260 261 261 260 260 260 260 260 260 260 260 260 261 262 263 263 264 265 266 266 267 267 268 269 270 270 271 272 272 273 274 275 276 277 278 279 279 280 281 282 283 285 286 287 289 290 291 291 291 291 290 288 286 283 281 280 280 281 282 282 281
264 263 263 262 260 259 258 257 256 256 256 256 257 258 258 259 259 260 261 262 262 262 262 261 261 261 262 261 261 261 261 260 260 260 260 260 260 260 261 262 263 264 264 265 266 267 267 268 269 269 270 271 273 274 275 276 277 278 279 280 281 281 282 283 284 285 286 288 289 290 290 291 291 290 288 286 283 281 281 281 283 284 284 283 281
267 265 264 263 262 261 260 259 258 257 257 257 256 256 256 257 258 259 259 259 260 261 262 262 261 261 261 262 262 261 261 261 261 260 260 261 261 260 260 261 261 262 264 265 265 266 267 268 268 269 270 271 272 274 275 276 277 277 278 279 280 281 282 283 284 285 286 287 288 289 290 290 289 288 285 282 281 281 283 285 286 286 284 282 281
266 266 264 263 262 261 260 260 259 258 258 259 259 258 257 256 256 257 258 258 259 260 261 262 262 261 261 261 261 261 261 262 262 262 262 261 261 261 261 261 261 262 263 264 265 266 267 267 268 269 270 271 272 273 274 275 275 276 277 278 278 279 281 282 283 284 285 287 288 289 289 288 287 285 282 281 282 284 287 288 287 285 284 282 281
266 265 264 263 262 261 260 259 259 258 258 258 259 260 259 258 257 257 257 258 259 259 260 261 262 262 261 261 261 262 262 263 263 264 263 262 262 262 262 263 263 263 263 263 263 264 265 266 267 268 269 270 271 272 273 274 275 275 276 277 278 280 281 282 283 284 285 286 287 288 287 286 284 281 281 282 284 287 288 287 285 284 283 282 281
267 266 265 264 262 262 261 260 258 257 257 256 256 258 259 259 259 258 258 257 258 258 259 259 260 261 262 263 263 263 263 263 263 264 263 263 263 264 265 265 265 265 264 264 264 264 265 266 266 267 268 269 270 271 273 274 275 276 277 279 280 281 282 282 283 284 285 286 286 286 285 283 280 280 281 284 286 287 286 285 284 283 282 282 282
268 266 266 265 264 263 262 261 260 258 257 256 255 255 256 257 258 259 259 258 258 258 258 258 259 260 261 262 262 263 264 264 263 263 263 263 264 265 266 266 266 266 266 266 266 266 266 266 267 267 268 269 270 271 273 275 276 277 279 280 280 281 281 282 283 284 284 284 285 284 282 280 279 281 283 285 285 284 283 283 283 283 283 283 282
268 267 266 265 264 263 262 261 261 259 258 256 255 255 254 255 255 257 258 258 258 258 258 258 258 258 259 260 262 264 264 263 263 263 263 265 266 266 266 265 264 265 265 266 266 266 266 266 267 267 268 269 271 272 274 275 276 277 278 278 279 279 280 280 281 282 283 283 283 282 280 279 280 283 284 284 283 282 282 282 283 283 284 284 284
268 267 265 264 263 263 262 261 260 260 258 256 255 254 253 254 254 255 256 257 257 258 258 258 258 258 259 261 262 262 261 261 263 265 267 267 267 265 264 263 263 263 263 263 263 264 264 265 266 267 269 270 271 272 273 274 275 275 276 276 277 278 278 279 280 281 281 282 281 279 278 279 281 282 282 281 281 281 282 283 284 284 285 285 285
268 267 265 263 262 261 260 260 259 258 257 256 254 253 252 252 252 253 254 255 256 257 257 258 258 259 259 260 259 259 260 261 263 265 266 266 264 263 261 261 261 261 261 261 262 262 263 265 266 267 268 269 270 271 272 272 272 273 273 274 275 276 277 278 279 280 280 279 278 277 277 279 281 280 280 280 281 281 282 284 285 286 286 285 285
270 269 267 265 263 261 259 258 257 256 255 254 253 252 251 250 250 251 252 253 254 255 256 257 258 258 257 256 258 259 261 261 261 261 262 262 261 260 260 260 261 261 261 261 262 262 263 264 265 266 267 268 269 269 270 270 271 271 272 273 274 275 276 278 278 279 278 277 275 275 277 278 278 278 279 280 281 282 283 284 284 283 283 283 283
272 271 270 268 265 263 260 258 256 254 253 252 251 251 250 249 248 249 250 251 252 253 254 255 256 256 256 257 258 260 261 261 260 260 260 259 258 259 259 259 259 259 260 261 262 262 263 264 265 266 267 267 267 268 269 269 270 271 271 272 273 274 276 277 277 277 276 275 274 275 276 276 276 277 278 279 280 281 282 282 281 280 280 281 281
272 271 270 269 267 265 262 259 256 253 252 250 249 248 248 247 247 247 248 249 250 251 252 253 255 255 256 256 257 259 262 264 263 261 258 257 257 258 259 258 258 258 260 260 261 262 263 264 265 266 266 267 267 268 268 269 269 269 270 271 272 274 275 275 275 274 273 273 274 275 276 276 276 277 278 279 279 279 279 279 279 279 279 278 279
272 271 271 269 268 266 263 261 258 255 252 249 248 246 246 246 246 246 247 248 249 251 252 253 253 254 255 256 257 261 263 263 259 256 255 256 257 258 259 259 259 259 260 261 261 262 263 264 265 266 266 266 267 267 268 268 268 268 269 270 271 272 273 273 272 272 272 272 273 275 276 276 276 277 277 277 276 276 276 277 277 278 278 278 278
272 271 269 268 266 265 263 261 259 256 253 250 248 247 246 246 246 246 246 246 248 249 251 252 253 255 256 257 256 256 257 255 252 251 253 255 256 257 257 257 258 258 259 260 261 262 263 264 265 265 265 266 266 266 266 266 266 267 268 269 270 270 271 271 270 270 271 272 273 274 275 275 275 275 275 274 273 273 274 275 276 278 279 280 281
272 270 268 267 266 265 264 262 260 257 254 252 249 247 246 245 245 244 244 245 246 246 248 249 250 252 254 255 252 250 252 252 251 251 252 253 253 253 254 255 256 256 258 259 261 262 263 263 263 264 264 264 264 264 264 265 265 266 266 267 268 268 269 269 269 269 270 272 273 273 273 273 272 271 271 270 271 272 273 275 277 279 281 282 282
274 272 270 268 266 265 264 262 261 258 255 252 250 247 246 245 244 243 242 243 244 244 245 246 248 251 254 256 254 251 251 251 252 252 251 250 249 250 252 253 254 254 256 258 259 261 261 261 261 262 262 262 262 262 262 263 264 264 265 266 266 267 267 267 268 269 270 271 272 272 271 270 269 268 267 267 269 271 273 276 278 280 281 281 282
278 276 274 271 268 266 263 262 260 258 256 253 250 248 246 245 244 243 242 242 242 243 244 246 249 251 254 253 250 247 248 249 249 248 246 246 247 248 249 251 252 253 255 256 257 258 258 258 259 259 260 260 260 260 261 261 262 263 263 264 265 265 265 266 267 268 270 270 270 269 268 266 265 264 264 264 267 270 273 275 276 277 278 279 281
281 280 278 275 272 268 265 262 259 257 256 253 250 247 245 244 243 243 242 241 241 242 244 246 248 249 250 248 245 243 243 244 243 243 242 243 244 246 248 250 251 252 253 254 255 255 255 256 257 257 257 257 258 258 259 259 260 261 262 262 263 263 264 265 266 267 267 268 267 266 263 262 261 260 259 261 264 267 269 271 272 273 274 277 280
282 281 280 279 276 272 268 265 261 258 255 252 250 247 244 243 243 242 241 240 239 240 242 243 243 243 242 240 239 238 238 239 240 240 241 242 243 246 248 250 250 250 251 252 252 252 253 254 254 255 255 255 256 256 257 257 258 259 260 261 262 262 263 264 265 266 265 265 264 262 259 257 257 257 257 258 260 262 264 267 268 269 272 275 279
284 283 282 280 278 275 270 266 263 260 256 252 248 246 244 242 241 241 240 239 238 238 239 239 239 239 238 237 236 236 236 237 238 239 240 241 243 245 247 248 248 248 248 249 250 251 251 252 252 253 253 253 254 254 255 256 256 257 258 259 260 261 262 263 264 264 264 263 261 258 255 254 254 255 256 257 257 258 259 261 263 264 269 273 277
286 285 284 282 280 278 274 268 263 259 256 252 248 244 242 240 239 239 239 239 238 238 238 238 239 239 238 237 236 236 236 237 237 238 239 240 242 243 244 244 244 244 245 246 248 248 249 249 250 251 251 252 252 253 253 254 255 256 257 258 259 260 261 261 261 262 262 261 258 254 251 250 251 253 255 256 256 255 256 258 259 260 264 269 274
287 286 285 283 281 279 277 273 267 260 254 250 247 244 240 238 236 236 237 237 238 237 237 237 238 238 238 238 237 237 236 237 237 237 238 239 240 240 240 240 240 241 243 244 246 247 247 248 249 250 250 251 251 251 252 253 254 255 256 257 258 258 259 259 258 258 257 256 255 252 249 248 249 251 252 253 253 253 255 256 257 258 260 264 269
288 287 285 283 281 279 276 273 270 264 256 249 245 242 240 238 235 234 233 234 235 235 235 235 235 235 235 235 235 235 235 236 236 237 237 237 238 237 237 238 239 240 242 243 244 245 247 247 248 249 249 250 250 250 250 251 252 253 254 255 256 256 256 256 255 253 252 251 251 250 248 247 247 248 250 250 249 250 253 256 256 256 257 261 265
289 289 287 284 282 280 277 272 267 263 259 252 246 242 239 238 236 234 233 232 233 233 233 234 234 234 234 233 233 233 234 234 235 235 236 236 236 237 237 238 239 240 241 242 243 244 245 246 246 247 247 247 247 248 248 249 250 251 252 253 254 254 254 253 252 249 248 247 248 247 246 246 246 247 247 247 247 248 251 254 255 255 256 259 262
Height
10556 10556 10556 10556 10555 10556 10556 10554 10553 10552 10550 10549 10548 10548 10548 10546 10545 10544 10544 10544 10545 10546 10547 10548 10548 10549 10550 10552 10553 10554 10554 10554 10555 10555 10555 10555 10556 10556 10557 10557 10557 10558 10558 10559 10559 10559 10560 10560 10561 10562 10562 10562 10562 10563 10563 10564 10564 10565 10566 10566 10566 10567 10567 10568 10568 10569 10569 10570 10570 10571 10571 10572 10573 10573 10574 10574 10575 10576 10577 10578 10579 10581 10583 10584 10586
10551 10552 10551 10550 10550 10551 10551 10549 10548 10547 10547 10545 10544 10543 10543 10542 10542 10542 10541 10539 10539 10539 10540 10541 10541 10541 10542 10543 10544 10545 10546 10547 10548 10548 10549 10549 10550 10550 10550 10551 10551 10551 10552 10552 10553 10553 10554 10554 10555 10555 10556 10556 10556 10556 10556 10557 10557 10558 10559 10560 10560 10561 10561 10561 10561 10562 10562 10563 10563 10564 10565 10566 10566 10567 10567 10568 10569 10569 10570 10571 10572 10574 10575 10577 10579
10547 10548 10546 10544 10545 10546 10546 10544 10542 10542 10542 10541 10539 10538 10537 10537 10537 10538 10538 10536 10535 10535 10534 10535 10535 10535 10535 10535 10536 10536 10537 10538 10540 10540 10541 10542 10543 10543 10543 10544 10544 10545 10545 10546 10546 10547 10547 10547 10548 10548 10549 10549 10549 10549 10549 10550 10550 10551 10552 10553 10553 10554 10554 10555 10555 10555 10555 10556 10557 10557 10558 10559 10559 10560 10560 10561 10562 10563 10563 10565 10566 10567 10568 10570 10571
10541 10541 10539 10538 10538 10540 10540 10539 10538 10536 10535 10535 10535 10534 10532 10531 10532 10533 10533 10532 10531 10531 10530 10529 10529 10529 10529 10529 10530 10531 10531 10532 10532 10533 10534 10535 10535 10535 10536 10536 10537 10538 10539 10539 10540 10540 10540 10540 10540 10541 10541 10542 10542 10542 10542 10542 10543 10544 10545 10546 10546 10547 10547 10548 10548 10548 10548 10549 10549 10550 10551 10552 10552 10553 10553 10554 10555 10555 10556 10557 10559 10560 10561 10562 10564
10534 10534 10532 10531 10530 10531 10532 10532 10532 10531 10530 10530 10530 10529 10527 10526 10527 10527 10527 10527 10527 10527 10525 10524 10523 10523 10523 10523 10524 10525 10525 10526 10527 10527 10527 10527 10528 10528 10529 10530 10531 10532 10533 10533 10533 10534 10533 10533 10533 10533 10534 10534 10534 10535 10535 10535 10536 10537 10538 10539 10539 10540 10540 10541 10541 10542 10542 10542 10543 10543 10544 10544 10545 10545 10546 10547 10547 10548 10549 10550 10551 10552 10553 10554 10556
10527 10526 10525 10523 10522 10522 10523 10523 10524 10524 10524 10523 10523 10522 10521 10521 10520 10520 10520 10521 10522 10522 10520 10518 10516 10516 10517 10517 10518 10518 10519 10520 10521 10520 10520 10520 10521 10521 10522 10524 10525 10526 10527 10527 10527 10527 10526 10525 10525 10525 10526 10526 10527 10527 10527 10528 10529 10529 10531 10531 10532 10533 10533 10534 10534 10535 10535 10536 10536 10537 10537 10537 10537 10537 10537 10538 10539 10541 10542 10543 10544 10545 10546 10546 10547
10518 10518 10517 10515 10513 10512 10513 10514 10514 10514 10514 10515 10515 10515 10514 10515 10514 10514 10514 10513 10514 10515 10514 10512 10510 10510 10511 10511 10512 10512 10512 10513 10514 10514 10513 10513 10514 10514 10515 10517 10518 10519 10521 10521 10520 10519 10518 10518 10518 10518 10519 10519 10520 10520 10521 10521 10522 10522 10524 10525 10525 10526 10526 10526 10527 10527 10528 10529 10530 10530 10530 10530 10530 10529 10529 10530 10532 10533 10534 10536 10537 10538 10538 10539 10539
10509 10509 10508 10507 10505 10504 10504 10504 10505 10505 10504 10505 10507 10507 10507 10507 10507 10507 10506 10505 10506 10507 10507 10505 10504 10503 10504 10504 10505 10505 10505 10506 10506 10507 10507 10507 10507 10508 10509 10510 10511 10513 10514 10514 10513 10511 10511 10511 10511 10511 10513 10513 10514 10514 10515 10515 10516 10516 10517 10518 10518 10519 10519 10519 10519 10520 10520 10521 10522 10522 10522 10522 10521 10521 10522 10523 10525 10525 10526 10527 10528 10529 10530 10531 10532
10500 10500 10499 10498 10497 10496 10496 10496 10496 10496 10496 10496 10498 10499 10500 10499 10499 10499 10498 10498 10500 10500 10499 10498 10497 10496 10495 10495 10496 10497 10498 10499 10499 10500 10501 10499 10499 10501 10502 10503 10505 10506 10508 10508 10507 10506 10506 10506 10506 10506 10507 10508 10509 10509 10509 10510 10510 10511 10511 10511 10512 10512 10511 10512 10512 10513 10513 10513 10514 10514 10514 10513 10512 10512 10514 10516 10517 10518 10518 10519 10519 10520 10521 10522 10523
10491 10491 10491 10490 10489 10488 10488 10488 10488 10488 10488 10488 10489 10491 10492 10492 10492 10492 10491 10492 10493 10492 10492 10491 10489 10488 10487 10485 10485 10486 10488 10490 10492 10493 10494 10491 10489 10491 10492 10494 10496 10498 10500 10502 10502 10502 10502 10501 10502 10502 10503 10503 10504 10504 10504 10504 10504 10505 10505 10506 10505 10505 10504 10504 10505 10505 10505 10505 10505 10505 10506 10505 10504 10504 10506 10508 10508 10509 10510 10510 10511 10512 10512 10512 10513
10483 10484 10483 10482 10482 10481 10480 10480 10480 10479 10480 10480 10481 10482 10484 10485 10485 10485 10484 10485 10486 10486 10485 10485 10483 10481 10480 10478 10478 10477 10477 10481 10483 10484 10486 10484 10481 10481 10482 10483 10484 10486 10489 10492 10494 10496 10497 10497 10497 10497 10497 10498 10498 10498 10498 10499 10499 10499 10499 10499 10499 10498 10498 10498 10497 10497 10497 10497 10497 10497 10497 10497 10495 10495 10497 10499 10500 10500 10501 10501 10502 10502 10503 10503 10503
10474 10474 10474 10473 10473 10473 10472 10472 10472 10472 10471 10472 10473 10474 10476 10478 10479 10478 10477 10478 10479 10479 10479 10479 10477 10474 10472 10472 10473 10471 10471 10474 10475 10475 10476 10477 10475 10475 10475 10475 10474 10475 10477 10480 10482 10486 10488 10489 10490 10491 10491 10491 10491 10492 10492 10492 10492 10492 10492 10492 10491 10491 10490 10490 10490 10489 10489 10489 10489 10489 10489 10488 10487 10487 10488 10490 10490 10490 10491 10491 10492 10493 10493 10493 10493
10463 10463 10463 10463 10463 10463 10463 10463 10463 10464 10463 10464 10464 10465 10467 10470 10471 10471 10470 10470 10471 10471 10471 10470 10468 10467 10466 10466 10467 10467 10466 10467 10469 10469 10469 10469 10469 10469 10469 10469 10469 10468 10468 10469 10470 10473 10475 10478 10480 10481 10482 10482 10483 10484 10484 10484 10484 10484 10484 10483 10483 10482 10482 10481 10481 10481 10481 10481 10481 10481 10480 10479 10479 10479 10479 10480 10481 10480 10480 10480 10481 10482 10482 10483 10483
10452 10452 10452 10453 10453 10453 10453 10453 10454 10455 10455 10456 10456 10457 10459 10461 10463 10463 10463 10462 10463 10463 10462 10461 10460 10459 10459 10460 10461 10461 10461 10461 10462 10463 10463 10463 10463 10463 10463 10463 10463 10462 10462 10461 10462 10463 10464 10466 10468 10470 10471 10472 10472 10473 10474 10475 10475 10475 10475 10474 10474 10473 10473 10473 10472 10472 10472 10472 10472 10472 10471 10470 10470 10470 10470 10470 10471 10471 10471 10470 10471 10471 10472 10472 10472
10441 10441 10441 10441 10442 10442 10443 10443 10444 10445 10446 10447 10448 10449 10451 10453 10454 10454 10453 10453 10453 10453 10453 10453 10452 10452 10452 10452 10453 10454 10455 10454 10454 10455 10456 10456 10456 10455 10456 10456 10456 10456 10456 10455 10455 10455 10455 10456 10457 10459 10460 10461 10461 10462 10462 10463 10463 10464 10464 10464 10464 10464 10464 10463 10463 10463 10463 10462 10462 10462 10461 10461 10461 10461 10461 10460 10461 10461 10461 10461 10461 10461 10461 10461 10460
10430 10430 10430 10430 10431 10432 10432 10433 10433 10434 10436 10437 10439 10441 10443 10444 10444 10444 10443 10443 10443 10444 10445 10445 10444 10445 10445 10443 10444 10446 10447 10447 10447 10447 10448 10449 10448 10448 10448 10449 10449 10449 10449 10448 10448 10448 10448 10448 10448 10449 10449 10450 10450 10451 10451 10451 10452 10453 10453 10453 10453 10454 10454 10453 10453 10453 10452 10452 10452 10451 10452 10451 10451 10451 10451 10450 10451 10451 10451 10450 10450 10450 10450 10449 10448
10420 10420 10420 10421 10421 10421 10422 10422 10422 10423 10424 10426 10428 10431 10433 10434 10434 10435 10436 10435 10434 10435 10434 10433 10435 10438 10437 10435 10436 10438 10438 10439 10440 10441 10442 10442 10442 10441 10441 10442 10442 10443 10442 10441 10440 10440 10440 10440 10440 10440 10440 10440 10440 10441 10441 10441 10442 10442 10442 10442 10442 10443 10443 10442 10442 10442 10442 10441 10441 10440 10440 10440 10440 10440 10440 10440 10440 10439 10438 10438 10437 10436 10436 10436 10436
10411 10411 10411 10411 10411 10411 10411 10411 10411 10412 10414 10415 10417 10419 10422 10423 10424 10426 10428 10428 10425 10423 10422 10421 10424 10428 10429 10428 10429 10430 10430 10431 10431 10431 10433 10434 10435 10435 10435 10435 10435 10435 10435 10434 10434 10434 10434 10433 10433 10433 10432 10432 10432 10432 10432 10432 10432 10432 10432 10432 10431 10431 10431 10431 10431 10431 10431 10430 10430 10429 10429 10429 10429 10428 10428 10428 10427 10426 10425 10425 10423 10423 10423 10422 10422
10402 10402 10401 10401 10401 10401 10400 10400 10400 10402 10403 10405 10407 10408 10410 10412 10413 10415 10417 10417 10415 10413 10412 10412 10414 10417 10419 10420 10420 10421 10421 10421 10421 10422 10423 10425 10426 10427 10427 10427 10427 10427 10427 10427 10427 10428 10427 10427 10426 10425 10424 10424 10423 10423 10423 10423 10423 10422 10422 10421 10421 10421 10421 10420 10420 10420 10420 10419 10419 10418 10418 10418 10417 10417 10416 10415 10414 10413 10412 10411 10410 10409 10409 10408 10407
10393 10393 10393 10392 10391 10391 10391 10390 10391 10392 10394 10396 10397 10399 10400 10401 10402 10403 10405 10406 10406 10405 10404 10404 10405 10406 10408 10409 10409 10409 10410 10410 10411 10413 10414 10415 10416 10417 10417 10417 10418 10418 10418 10418 10419 10419 10419 10418 10417 10416 10416 10415 10415 10415 10415 10414 10413 10413 10412 10411 10411 10410 10410 10409 10409 10409 10408 10408 10407 10407 10406 10406 10405 10404 10403 10402 10401 10400 10398 10397 10396 10395 10394 10393 10392
10383 10383 10383 10383 10382 10382 10381 10381 10381 10383 10385 10387 10388 10389 10390 10391 10392 10393 10394 10395 10396 10396 10395 10395 10396 10397 10398 10399 10398 10398 10399 10400 10402 10403 10405 10406 10406 10407 10407 10408 10408 10409 10409 10409 10409 10409 10409 10408 10408 10407 10406 10406 10406 10405 10405 10404 10403 10403 10402 10401 10400 10400 10399 10399 10399 10398 10397 10396 10396 10395 10394 10393 10392 10391 10390 10389 10388 10386 10384 10382 10381 10379 10379 10378 10376
10372 10373 10373 10373 10373 10373 10372 10372 10372 10372 10374 10376 10378 10380 10381 10381 10382 10383 10383 10383 10385 10386 10386 10386 10387 10388 10388 10388 10388 10388 10388 10390 10392 10394 10395 10396 10396 10397 10398 10399 10399 10400 10400 10400 10400 10400 10399 10398 10397 10397 10397 10396 10395 10395 10394 10394 10393 10392 10391 10390 10390 10389 10389 10389 10389 10388 10387 10386 10385 10383 10382 10381 10380 10379 10378 10376 10375 10373 10370 10368 10366 10364 10363 10362 10362
10362 10362 10363 10363 10363 10362 10362 10362 10361 10361 10362 10364 10366 10368 10370 10371 10372 10372 10372 10373 10374 10376 10377 10377 10378 10379 10379 10378 10379 10379 10379 10381 10383 10383 10384 10385 10386 10387 10388 10390 10391 10391 10391 10391 10390 10390 10389 10388 10387 10387 10387 10386 10385 10384 10384 10383 10382 10382 10381 10380 10379 10379 10379 10379 10378 10377 10376 10375 10373 10372 10370 10369 10368 10367 10366 10364 10361 10359 10357 10355 10352 10350 10349 10348 10347
10352 10352 10352 10352 10352 10351 10351 10351 10351 10350 10350 10350 10353 10355 10357 10360 10362 10362 10362 10362 10363 10365 10366 10367 10368 10368 10369 10370 10370 10370 10371 10372 10372 10373 10374 10375 10376 10378 10379 10381 10381 10381 10381 10381 10380 10379 10378 10377 10377 10377 10376 10376 10375 10374 10374 10373 10372 10372 10371 10370 10369 10369 10369 10368 10367 10365 10364 10363 10361 10360 10359 10358 10357 10355 10353 10351 10348 10345 10343 10341 10339 10337 10336 10336 10335
10340 10341 10341 10340 10340 10340 10340 10340 10340 10340 10339 10338 10339 10341 10344 10347 10349 10351 10351 10351 10352 10354 10355 10356 10357 10358 10359 10359 10360 10361 10361 10362 10362 10362 10363 10364 10366 10368 10370 10372 10372 10371 10371 10371 10370 10369 10368 10368 10368 10367 10367 10366 10365 10365 10364 10364 10363 10363 10361 10360 10359 10358 10358 10357 10356 10354 10353 10352 10350 10349 10348 10346 10345 10343 10341 10338 10335 10333 10331 10329 10327 10325 10324 10324 10323
10325 10327 10328 10328 10327 10328 10329 10330 10329 10328 10328 10327 10326 10329 10333 10335 10336 10337 10338 10339 10340 10342 10343 10344 10345 10346 10347 10348 10349 10350 10350 10350 10351 10351 10353 10355 10357 10360 10361 10362 10362 10362 10362 10361 10360 10360 10359 10359 10359 10358 10357 10356 10355 10354 10354 10354 10354 10354 10353 10351 10350 10348 10347 10346 10345 10344 10342 10341 10339 10338 10337 10335 10334 10332 10330 10327 10324 10321 10319 10317 10315 10314 10313 10313 10313
10311 10312 10313 10313 10314 10314 10315 10318 10318 10316 10315 10316 10316 10318 10320 10323 10324 10323 10324 10326 10327 10328 10329 10331 10333 10333 10334 10335 10337 10338 10338 10339 10339 10339 10342 10346 10349 10350 10351 10352 10352 10352 10352 10352 10351 10351 10351 10350 10349 10348 10347 10346 10345 10344 10344 10344 10344 10344 10343 10342 10340 10338 10337 10335 10334 10333 10331 10330 10328 10327 10326 10325 10323 10321 10319 10316 10313 10310 10308 10307 10306 10305 10304 10304 10303
10296 10298 10298 10298 10299 10299 10300 10302 10304 10303 10302 10304 10307 10306 10306 10310 10312 10311 10311 10314 10314 10312 10313 10317 10321 10322 10321 10322 10325 10326 10326 10325 10324 10327 10332 10336 10338 10340 10341 10342 10343 10343 10342 10341 10341 10341 10341 10340 10339 10337 10336 10336 10335 10335 10334 10334 10334 10333 10333 10331 10330 10328 10326 10325 10323 10322 10321 10319 10318 10318 10316 10315 10313 10311 10308 10305 10301 10299 10297 10297 10298 10298 10297 10295 10293
10279 10282 10282 10282 10283 10283 10283 10285 10288 10289 10289 10290 10292 10292 10293 10298 10300 10298 10299 10301 10300 10298 10299 10303 10307 10309 10309 10310 10312 10313 10311 10310 10311 10315 10321 10325 10326 10328 10331 10332 10333 10333 10331 10331 10331 10330 10330 10329 10328 10327 10327 10326 10326 10325 10325 10325 10324 10323 10322 10321 10320 10318 10316 10315 10313 10312 10311 10310 10309 10309 10307 10306 10303 10301 10298 10294 10291 10289 10289 10291 10291 10290 10288 10285 10284
10264 10265 10265 10265 10266 10266 10267 10269 10272 10275 10276 10277 10276 10277 10280 10285 10286 10284 10285 10287 10286 10286 10288 10289 10291 10295 10297 10297 10297 10297 10297 10298 10299 10303 10309 10312 10314 10316 10319 10321 10322 10322 10321 10320 10320 10319 10319 10318 10318 10317 10317 10316 10316 10315 10315 10315 10315 10314 10313 10311 10310 10308 10307 10306 10304 10303 10302 10301 10301 10300 10299 10297 10294 10291 10287 10284 10282 10282 10283 10284 10283 10280 10278 10277 10275
10250 10249 10248 10249 10250 10249 10251 10255 10258 10260 10263 10264 10264 10263 10264 10268 10271 10272 10273 10273 10272 10273 10276 10278 10278 10280 10282 10282 10283 10283 10286 10288 10289 10291 10295 10299 10301 10304 10308 10311 10312 10311 10310 10309 10309 10309 10309 10308 10308 10308 10307 10306 10305 10306 10306 10305 10305 10304 10303 10301 10300 10299 10298 10296 10295 10294 10293 10293 10292 10292 10291 10289 10285 10281 10277 10276 10277 10277 10277 10276 10274 10272 10270 10269 10268
10237 10236 10234 10234 10235 10236 10237 10240 10243 10246 10249 10251 10252 10252 10251 10252 10255 10257 10259 10260 10258 10259 10264 10267 10267 10266 10267 10269 10269 10270 10273 10276 10278 10279 10282 10286 10289 10294 10298 10300 10299 10297 10297 10297 10298 10298 10298 10297 10297 10297 10296 10296 10296 10296 10296 10296 10295 10294 10293 10292 10291 10290 10288 10287 10286 10286 10286 10285 10285 10284 10283 10280 10276 10272 10271 10271 10272 10271 10269 10267 10265 10264 10263 10262 10261
10223 10223 10221 10221 10222 10223 10225 10226 10228 10232 10236 10238 10240 10241 10241 10241 10241 10241 10243 10245 10246 10248 10250 10253 10255 10256 10256 10255 10255 10257 10261 10264 10266 10268 10271 10276 10281 10286 10288 10288 10285 10284 10284 10286 10286 10286 10286 10286 10286 10285 10285 10285 10286 10286 10286 10286 10285 10284 10284 10283 10282 10280 10279 10278 10278 10278 10278 10278 10278 10277 10274 10270 10267 10266 10266 10267 10266 10264 10261 10260 10258 10257 10256 10255 10255
10209 10210 10209 10209 10210 10211 10212 10213 10215 10219 10223 10225 10227 10229 10230 10230 10229 10229 10229 10230 10233 10236 10237 10239 10242 10244 10244 10245 10247 10248 10249 10250 10252 10257 10263 10269 10274 10276 10276 10274 10273 10273 10274 10275 10275 10275 10274 10274 10274 10274 10275 10276 10277 10277 10277 10276 10276 10275 10274 10273 10272 10272 10272 10271 10271 10271 10271 10271 10271 10269 10265 10262 10261 10261 10261 10261 10259 10257 10255 10253 10252 10251 10250 10249 10248
10197 10197 10197 10198 10199 10199 10200 10202 10204 10206 10210 10212 10214 10216 10218 10218 10218 10218 10218 10218 10221 10224 10225 10227 10229 10232 10236 10240 10239 10235 10233 10236 10243 10251 10258 10263 10264 10263 10262 10261 10262 10263 10263 10263 10263 10263 10263 10264 10264 10265 10266 10267 10268 10268 10268 10267 10267 10266 10266 10265 10264 10264 10264 10265 10265 10265 10265 10265 10264 10261 10258 10257 10257 10256 10255 10254 10252 10250 10249 10248 10246 10245 10244 10243 10242
10187 10186 10187 10188 10189 10189 10190 10192 10194 10195 10197 10199 10201 10203 10205 10207 10207 10207 10207 10208 10210 10212 10213 10215 10218 10224 10230 10230 10223 10218 10222 10231 10239 10245 10250 10252 10250 10249 10248 10250 10252 10253 10252 10252 10253 10254 10255 10255 10256 10257 10258 10259 10259 10259 10259 10259 10258 10258 10258 10257 10257 10257 10258 10258 10258 10258 10258 10258 10256 10254 10253 10253 10252 10250 10249 10247 10246 10244 10244 10243 10241 10240 10239 10237 10237
10177 10177 10177 10178 10179 10180 10181 10182 10184 10185 10187 10188 10190 10191 10193 10195 10196 10196 10196 10198 10199 10201 10203 10205 10208 10213 10217 10216 10211 10210 10217 10226 10233 10238 10241 10240 10237 10237 10238 10241 10243 10242 10242 10243 10244 10245 10246 10247 10248 10250 10251 10251 10251 10251 10251 10250 10250 10250 10250 10250 10250 10251 10252 10252 10252 10251 10251 10250 10249 10248 10248 10248 10246 10244 10243 10242 10240 10239 10239 10238 10237 10236 10234 10233 10232
10167 10167 10167 10168 10169 10170 10171 10173 10175 10176 10177 10178 10180 10181 10182 10183 10185 10186 10187 10188 10190 10191 10194 10195 10197 10201 10204 10205 10204 10206 10210 10217 10225 10231 10231 10228 10227 10228 10231 10233 10233 10233 10233 10235 10236 10237 10238 10239 10241 10242 10242 10242 10242 10242 10243 10243 10243 10243 10243 10243 10244 10245 10245 10246 10246 10245 10244 10244 10243 10243 10244 10243 10240 10238 10237 10237 10236 10235 10234 10233 10232 10231 10230 10229 10228
10158 10157 10158 10159 10160 10161 10162 10163 10165 10166 10168 10169 10170 10171 10172 10173 10175 10176 10177 10179 10180 10182 10184 10186 10189 10192 10193 10195 10196 10200 10204 10211 10218 10221 10219 10217 10218 10220 10222 10223 10224 10225 10226 10227 10228 10229 10231 10232 10234 10234 10234 10234 10234 10235 10235 10235 10236 10236 10236 10237 10238 10238 10239 10240 10239 10239 10238 10238 10238 10238 10238 10237 10235 10233 10233 10232 10231 10230 10229 10228 10227 10227 10226 10225 10224
10150 10150 10150 10151 10151 10152 10153 10154 10155 10157 10158 10159 10161 10161 10162 10163 10165 10168 10170 10171 10172 10173 10175 10179 10182 10182 10182 10185 10191 10196 10199 10204 10208 10209 10207 10208 10211 10213 10213 10214 10216 10218 10219 10219 10221 10222 10224 10225 10226 10226 10226 10227 10227 10228 10228 10229 10229 10230 10230 10231 10231 10232 10233 10234 10234 10233 10232 10233 10233 10233 10232 10231 10230 10229 10228 10228 10227 10226 10225 10224 10223 10223 10222 10221 10220
10144 10143 10143 10143 10143 10144 10144 10145 10146 10148 10149 10151 10152 10153 10154 10155 10158 10160 10162 10164 10165 10166 10168 10172 10174 10173 10172 10178 10186 10190 10192 10194 10197 10197 10198 10201 10204 10205 10205 10206 10209 10210 10211 10212 10214 10215 10217 10218 10219 10218 10219 10220 10221 10221 10222 10222 10223 10224 10225 10225 10226 10227 10227 10228 10228 10227 10227 10227 10228 10228 10227 10226 10225 10225 10224 10223 10222 10222 10221 10221 10220 10219 10218 10218 10217
10137 10136 10136 10136 10137 10137 10137 10138 10139 10140 10141 10143 10144 10145 10147 10148 10150 10152 10155 10156 10158 10161 10162 10164 10165 10164 10164 10170 10178 10182 10183 10185 10187 10189 10192 10196 10196 10196 10197 10200 10202 10203 10204 10206 10207 10209 10211 10211 10211 10212 10213 10214 10215 10215 10216 10216 10217 10218 10219 10220 10221 10221 10222 10223 10223 10222 10222 10222 10223 10223 10222 10222 10221 10220 10220 10219 10218 10218 10218 10217 10217 10216 10215 10215 10214
10130 10129 10130 10131 10131 10131 10132 10132 10133 10133 10134 10136 10137 10138 10139 10141 10142 10144 10147 10149 10151 10154 10155 10155 10156 10157 10160 10166 10173 10176 10176 10177 10179 10183 10187 10188 10187 10188 10190 10193 10194 10196 10198 10200 10202 10203 10204 10204 10204 10206 10207 10208 10209 10210 10211 10211 10212 10213 10214 10214 10215 10216 10217 10218 10217 10217 10217 10217 10218 10218 10218 10217 10217 10216 10215 10215 10215 10215 10214 10214 10214 10213 10213 10212 10212
10124 10124 10124 10125 10125 10126 10126 10127 10127 10128 10128 10129 10130 10131 10133 10134 10136 10138 10140 10142 10145 10146 10147 10148 10150 10153 10157 10162 10166 10168 10168 10170 10173 10176 10178 10178 10179 10182 10184 10185 10188 10191 10192 10194 10196 10196 10197 10197 10199 10201 10202 10203 10204 10205 10205 10206 10207 10208 10208 10209 10210 10211 10212 10213 10212 10212 10212 10213 10213 10213 10213 10213 10212 10212 10212 10212 10212 10211 10211 10211 10211 10211 10211 10210 10210
10119 10119 10119 10119 10120 10120 10121 10121 10122 10122 10123 10124 10125 10126 10127 10128 10129 10131 10134 10136 10138 10140 10141 10143 10147 10150 10153 10155 10158 10159 10161 10162 10165 10167 10169 10171 10173 10174 10177 10179 10182 10185 10187 10188 10189 10189 10190 10192 10194 10195 10196 10197 10199 10199 10200 10201 10202 10203 10204 10204 10205 10206 10207 10208 10207 10207 10208 10208 10208 10209 10209 10208 10208 10208 10208 10208 10208 10208 10208 10209 10209 10209 10209 10208 10208
10115 10114 10114 10114 10115 10115 10116 10116 10117 10117 10118 10119 10120 10121 10121 10122 10124 10126 10128 10130 10132 10134 10136 10138 10141 10144 10146 10148 10150 10151 10153 10155 10157 10160 10162 10164 10166 10168 10171 10174 10177 10179 10181 10182 10182 10183 10185 10187 10188 10189 10191 10192 10193 10194 10195 10196 10197 10198 10199 10199 10200 10201 10202 10203 10202 10203 10203 10203 10204 10204 10204 10204 10204 10204 10205 10205 10206 10206 10206 10206 10207 10207 10207 10206 10206
10111 10111 10110 10110 10110 10110 10111 10112 10112 10112 10113 10114 10115 10116 10117 10118 10119 10121 10123 10125 10127 10129 10131 10133 10135 10137 10139 10141 10143 10145 10147 10149 10151 10154 10156 10159 10161 10164 10167 10169 10172 10174 10174 10174 10175 10178 10180 10182 10183 10184 10186 10187 10188 10189 10190 10191 10192 10193 10194 10195 10195 10196 10197 10198 10198 10198 10198 10199 10199 10200 10200 10200 10201 10201 10201 10202 10203 10203 10203 10204 10204 10205 10204 10204 10203
10108 10107 10107 10107 10107 10106 10107 10107 10108 10109 10109 10110 10111 10112 10112 10113 10115 10116 10118 10119 10122 10124 10126 10128 10130 10132 10134 10136 10138 10140 10142 10144 10146 10149 10151 10154 10156 10159 10162 10164 10166 10167 10167 10168 10171 10173 10175 10176 10177 10179 10180 10182 10183 10184 10185 10186 10187 10188 10189 10190 10191 10192 10192 10193 10194 10193 10193 10194 10195 10196 10196 10197 10197 10198 10198 10199 10200 10200 10200 10201 10201 10202 10202 10201 10201
10105 10104 10104 10103 10103 10103 10103 10104 10104 10105 10106 10106 10107 10108 10108 10109 10111 10112 10113 10115 10117 10119 10121 10123 10125 10127 10129 10132 10134 10136 10138 10140 10142 10144 10146 10149 10152 10154 10157 10158 10159 10160 10161 10164 10166 10167 10169 10171 10172 10174 10175 10177 10178 10179 10180 10181 10182 10183 10184 10185 10186 10187 10188 10188 10189 10189 10189 10190 10191 10191 10192 10193 10194 10194 10195 10196 10197 10197 10198 10198 10199 10199 10199 10199 10199
10102 10101 10101 10101 10100 10101 10101 10101 10101 10101 10102 10103 10104 10105 10105 10106 10107 10108 10110 10111 10113 10114 10116 10118 10120 10122 10124 10127 10129 10131 10133 10135 10137 10139 10142 10144 10146 10148 10150 10152 10153 10155 10157 10159 10161 10162 10164 10166 10167 10169 10170 10172 10173 10174 10175 10176 10177 10178 10179 10180 10181 10182 10183 10184 10184 10185 10186 10186 10186 10187 10188 10189 10190 10191 10192 10193 10194 10195 10195 10196 10196 10196 10196 10196 10196
10099 10098 10098 10098 10098 10098 10098 10099 10099 10099 10099 10100 10101 10102 10102 10103 10104 10105 10106 10108 10109 10111 10113 10114 10116 10118 10120 10122 10124 10126 10128 10130 10132 10134 10137 10139 10141 10143 10144 10146 10148 10150 10152 10154 10156 10157 10159 10161 10162 10164 10165 10166 10167 10169 10170 10171 10172 10173 10174 10175 10176 10177 10178 10179 10180 10181 10181 10182 10183 10183 10184 10185 10186 10187 10189 10190 10191 10192 10192 10193 10193 10194 10194 10194 10194